User: anonymous   Login
Location: Oshawa
(43.9000°N, 78.8670°W)
Time: 00:09:49
(UTC-05:00)
Language:

Cosmos 1821 Rocket - Orbit

View from above orbital plane
View from above orbital plane
View from above satellite
View from above satellite

Ground track
Ground track

The orbit data is extracted from the following two-line orbital elements,

1 17526U 87017B   17346.16131251 +.00000017 +00000-0 +18868-5 0  9999
2 17526 082.9035 267.2212 0040180 177.7306 182.4041 13.76821277530581
Epoch (UTC): 12 December 2017 03:52:17
Eccentricity: 0.0040180
inclination: 82.9035°
perigee height: 945 km
apogee height: 1005 km
right ascension of ascending node: 267.2212°
argument of perigee: 177.7306°
revolutions per day: 13.76821277
mean anomaly at epoch: 182.4041°
orbit number at epoch: 53058

The dashed part of the orbit path shows where the satellite is in the earth's shadow,  

DLR